Change the Weather History Date:

Saturday, June 23, 2012

  Actual Average Record
Temperature  
Mean Temperature 82 °F -  
Max Temperature 96 °F 86 °F 102 °F (2011)
Min Temperature 69 °F 69 °F 62 °F (2004)
Cooling Degree Days 18    
Growing Degree Days 32 (Base 50)    
Moisture  
Dew Point 70 °F    
Average Humidity 84    
Maximum Humidity 100    
Minimum Humidity 41    
Precipitation  
Precipitation 0.00 in - - ()
Sea Level Pressure  
Sea Level Pressure 29.89 in    
Wind  
Wind Speed 1 mph (SE)    
Max Wind Speed 9 mph    
Max Gust Speed 14 mph    
Visibility 10 miles    
Events      
Averages and records for this station are not official NWS values.
T = Trace of Precipitation, MM = Missing Value Source: NWS Daily Summary

Daily Weather History Graph

Daily Weather History Graph

Search for Another Location

Airport or City:

Trip Planner

Search our weather history database for the weather conditions in past years. The results will help you decide how hot, cold, wet, or windy it might be!

Date:

Astronomy

Jun. 23, 2012 Rise Set
Actual Time 6:16 AM CDT 8:43 PM CDT
Civil Twilight 5:47 AM CDT 9:13 PM CDT
Nautical Twilight 5:11 AM CDT 9:49 PM CDT
Astronomical Twilight 4:31 AM CDT 10:29 PM CDT
Moon 10:10 AM CDT (6/23) 11:24 PM CDT (6/23)
Length of Visible Light 15h 25m
Length of Day
14h 26m
Waxing Crescent, 16% of the Moon is Illuminated
Jun 23
Waxing Crescent
Jun 26
First Quarter
Jul 3
Full
Jul 10
Last Quarter
Jul 18
New

Hourly Weather History & Observations

Time (CDT) Temp. Heat Index Dew Point Humidity Pressure Visibility Wind Dir Wind Speed Gust Speed Precip Events Conditions
12:15 AM 77.0 °F - 71.6 °F 83% 29.90 in 7.0 mi Calm Calm - N/A   Clear
12:35 AM 77.0 °F - 71.6 °F 83% 29.90 in 10.0 mi Calm Calm - N/A   Clear
12:55 AM 75.2 °F - 69.8 °F 83% 29.89 in 10.0 mi Calm Calm - N/A   Clear
1:15 AM 77.0 °F - 69.8 °F 78% 29.88 in 10.0 mi Calm Calm - N/A   Clear
1:35 AM 77.0 °F - 69.8 °F 78% 29.88 in 10.0 mi Calm Calm - N/A   Clear
1:55 AM 73.4 °F - 69.8 °F 88% 29.87 in 10.0 mi Calm Calm - N/A   Clear
2:15 AM 73.4 °F - 69.8 °F 88% 29.87 in 10.0 mi Calm Calm - N/A   Clear
2:35 AM 71.6 °F - 69.8 °F 94% 29.87 in 10.0 mi Calm Calm - N/A   Clear
2:55 AM 71.6 °F - 69.8 °F 94% 29.87 in 10.0 mi Calm Calm - N/A   Clear
3:15 AM 71.6 °F - 69.8 °F 94% 29.87 in 10.0 mi Calm Calm - N/A   Clear
3:35 AM 71.6 °F - 69.8 °F 94% 29.87 in 10.0 mi Calm Calm - N/A   Clear
3:55 AM 71.6 °F - 69.8 °F 94% 29.87 in 10.0 mi Calm Calm - N/A   Clear
4:15 AM 69.8 °F - 69.8 °F 100% 29.87 in 10.0 mi Calm Calm - N/A   Clear
4:35 AM 69.8 °F - 69.8 °F 100% 29.87 in 10.0 mi Calm Calm - N/A   Clear
4:55 AM 69.8 °F - 69.8 °F 100% 29.87 in 10.0 mi Calm Calm - N/A   Clear
5:15 AM 69.8 °F - 69.8 °F 100% 29.88 in 10.0 mi Calm Calm - N/A   Clear
5:35 AM 69.8 °F - 69.8 °F 100% 29.87 in 10.0 mi Calm Calm - N/A   Clear
5:55 AM 69.8 °F - 69.8 °F 100% 29.89 in 10.0 mi Calm Calm - N/A   Clear
6:15 AM 71.6 °F - 69.8 °F 94% 29.89 in 10.0 mi Calm Calm - N/A   Clear
6:35 AM 71.6 °F - 69.8 °F 94% 29.90 in 10.0 mi Calm Calm - N/A   Clear
6:55 AM 71.6 °F - 69.8 °F 94% 29.91 in 10.0 mi Calm Calm - N/A   Clear
8:55 AM 82.4 °F 88.2 °F 73.4 °F 74% 29.94 in 10.0 mi SE 8.1 mph - N/A   Clear
9:55 AM 89.6 °F 98.2 °F 73.4 °F 59% 29.93 in 10.0 mi South 8.1 mph - N/A   Clear
12:55 PM 95.0 °F 103.2 °F 71.6 °F 47% 29.92 in 10.0 mi SSE 8.1 mph 13.8 mph N/A   Clear
2:55 PM 95.0 °F 101.3 °F 69.8 °F 44% 29.89 in 10.0 mi SE 9.2 mph - N/A   Clear
3:55 PM 96.8 °F 103.1 °F 69.8 °F 41% 29.88 in 10.0 mi SE 8.1 mph - N/A   Scattered Clouds
11:35 PM 75.2 °F - 66.2 °F 73% 29.93 in 10.0 mi East 5.8 mph - N/A   Clear
11:55 PM 75.2 °F - 66.2 °F 73% 29.94 in 10.0 mi ESE 4.6 mph - N/A   Clear